[[{"header":{"parameterUnit":"m.s-1","parameterCategory":1,"la1":30.2991,"la2":30.254,"lo1":-89.0895,"lo2":-89.0444,"dy":0.0017,"dx":0.0017,"nx":28,"ny":28,"refTime":"2023-07-30T03:00:00:Z","depth":0,"parameterNumber":2,"parameterNumberName":"U-component_of_WINDS"},"data":[0,0,0,0,0,0,0,0,0,0,0,0,0,0,0,0,0,0,0,0,0,0,0,0,0,0,0,0,0,0,0,0,0,0,0,0,0,0,0,0,0,0,0,0,0,0,0,0,0,0,0,0,0,0,0,0,0,0,0.9759,0.976,0,0.9909,0.9911,0.9912,0.9947,0.9946,0.9945,0.9944,1.0098,1.0103,1.0108,0,0,0,0,0,0,0,0,0,0,0,0,0,0.9502,0.9506,0.9758,0.976,0.9762,0.9909,0.9911,0.9913,0.9947,0.9946,0.9944,0.9943,1.0097,1.0103,1.0109,0,0,0,0,0,0,0,0,0,0,0,0,0,0.9629,0.9508,0.9758,0.9797,0.9802,0.9908,0.9911,0.9913,0.9947,0.9946,0.9944,0.9943,1.0095,1.0102,1.011,1.0188,0,0,1.0133,1.0136,0,0,0,0,0,0,0,0,0.9621,0.9638,0.9789,0.9794,0.98,0.9907,0.9877,1.0005,0.9948,0.9892,0.9944,0.9942,1.0036,1.0049,1.008,1.0195,1.0202,1.0134,1.0138,1.0142,1.0144,0,0,0,0,0,0,0,0.9613,0.9632,0.9818,0.9792,0.9798,0.9807,0.9823,0.9901,0.9971,0.9897,0.99,0.9917,1.0039,1.0073,1.0084,1.0204,1.0134,1.014,1.0145,1.0148,1.0392,1.0394,0,0,0,0,0,0,0.9597,0.9624,0.9813,0.9822,0.9705,0.9813,0.9831,0.9875,0.997,0.9983,0.9918,0.9918,1.0061,1.0075,1.009,1.0188,1.0142,1.0149,1.0153,1.039,1.0393,1.0395,0,0,0,0,0,0,0.9591,0.9613,0.9807,0.9724,0.975,0.9819,0.9868,0.9878,0.9912,0.9987,0.9999,0.994,1.006,1.0079,1.0164,1.0194,1.0152,1.0159,1.0388,1.0391,1.0394,1.0386,0,0,0,0,0,0,0.9584,0.9611,0.9642,0.9725,0.9754,0.9878,0.9869,0.9882,0.9925,0.9927,1.001,1.0023,1.006,1.0152,1.0171,1.0204,1.0165,1.0386,1.0389,1.0393,1.0384,1.0388,1.0392,0,0,0,0,0,0.9574,0.9633,0.9643,0.9666,0.9793,0.988,0.9897,0.9938,0.9928,0.9959,1.0007,1.002,1.0188,1.016,1.0182,1.0218,1.0384,1.0388,1.0392,1.0382,1.0387,1.0392,0,0,0,0,0,0,0.9552,0.9645,0.9657,0.9744,0.9804,0.9885,0.9926,0.9943,1.0007,1.0005,1.0054,1.0073,1.0155,1.0195,1.0163,1.0299,1.0286,1.0294,1.027,1.0276,1.028,1.0268,1.0171,0,0,0,0,0,0.9557,0.962,0.9698,0.9767,0.9797,0.9856,0.9895,0.9922,0.9986,1.0012,1.0066,1.0127,1.0194,1.0237,1.0302,1.0389,1.0409,1.0425,1.0429,1.0432,1.0439,1.0489,1.0497,1.0409,1.0409,1.0409,0,0,0.9569,0.9627,0.9664,0.9764,0.9814,0.9878,0.9877,0.9945,0.9993,1.0022,1.0105,1.0147,1.0219,1.0305,1.0346,1.0341,1.0468,1.0437,1.0439,1.0445,1.0494,1.0502,1.051,1.0412,1.0411,1.0411,0,0,0.9623,0.9673,0.9737,0.9786,0.9861,0.9901,0.9916,0.9995,1.0024,1.0108,1.0132,1.019,1.0303,1.0354,1.0395,1.0468,1.0483,1.0487,1.0509,1.0557,1.0564,1.057,1.0597,1.0606,1.0494,1.0494,1.0494,0,0.9628,0.9725,0.9768,0.9834,0.9878,0.9907,0.9973,1.0019,1.0111,1.0141,1.0134,1.0277,1.0328,1.0427,1.0445,1.0476,1.0496,1.0478,1.0559,1.0566,1.0573,1.0599,1.0608,1.0494,1.0494,1.0494,1.0494,0,0.9727,0.9794,0.9837,0.9925,0.9974,1.0039,1.0092,1.0136,1.0159,1.0199,1.0285,1.0346,1.0425,1.045,1.0473,1.0553,1.0547,1.0549,1.0537,1.058,1.0606,1.0616,1.0495,1.0495,1.0495,1.0495,0,0,0.9772,0.9883,0.9898,0.9939,1.0023,1.0076,1.0143,1.022,1.0257,1.0319,1.0377,1.0473,1.0475,1.0521,1.055,1.0592,1.0646,1.0589,1.0591,1.0598,1.0738,1.0737,1.0747,1.0656,1.0658,1.066,1.0732,0,0.9836,0.9957,0.9997,1.0097,1.016,1.0189,1.0247,1.0306,1.0345,1.0404,1.0447,1.0514,1.0512,1.054,1.0583,1.063,1.0675,1.0626,1.0711,1.0714,1.0693,1.076,1.0759,1.0824,1.0742,1.0744,1.0745,0,0.9928,0.9992,1.0098,1.0175,1.0203,1.0255,1.0329,1.0384,1.0451,1.0477,1.0528,1.0554,1.0626,1.0608,1.0708,1.0673,1.0711,1.0739,1.0743,1.0753,1.0732,1.0773,1.0846,1.0856,1.0761,1.076,1.0759,0,0.995,1.0063,1.0141,1.0175,1.0267,1.0302,1.0342,1.0408,1.0451,1.0516,1.0545,1.0617,1.0656,1.0712,1.0756,1.074,1.0852,1.0838,1.0876,1.0875,1.0899,1.0897,1.0979,1.0922,1.0922,1.0921,1.0921,0,1.0018,1.0082,1.0152,1.02,1.0273,1.0319,1.039,1.0431,1.0489,1.0547,1.0576,1.0629,1.0684,1.0745,1.078,1.0857,1.0875,1.0898,1.0907,1.0896,1.0893,1.0921,1.0918,1.0924,1.0923,1.0923,1.0922,0,1.0055,1.0105,1.0192,1.0272,1.0294,1.0344,1.0412,1.046,1.05,1.0572,1.0592,1.0655,1.0728,1.0778,1.0871,1.0895,1.0978,1.0986,1.0956,1.096,1.0995,1.0991,1.1099,1.1116,1.1046,1.1047,1.1047,0,1.0096,1.0146,1.0231,1.0271,1.0311,1.0376,1.042,1.0468,1.0513,1.0593,1.0632,1.0706,1.0768,1.0883,1.0938,1.1009,1.1019,1.1052,1.103,1.1018,1.1021,1.1017,1.1023,1.1056,1.1056,1.1057,1.1057,0,1.0162,1.0185,1.0248,1.032,1.0372,1.0431,1.049,1.0522,1.0579,1.0629,1.0703,1.0752,1.0847,1.0921,1.0997,1.1039,1.1058,1.1063,1.1076,1.1066,1.1046,1.1058,1.0966,1.1061,1.106,1.106,1.106,1.106,1.0203,1.0249,1.0316,1.0386,1.0435,1.049,1.0539,1.0586,1.0648,1.0729,1.0754,1.0831,1.0897,1.1002,1.1045,1.1107,1.1104,1.1122,1.1127,1.1131,1.1131,1.1035,1.1121,1.1121,1.1121,1.1121,1.1121,0,1.0272,1.0317,1.038,1.0462,1.0517,1.0529,1.0596,1.0641,1.0709,1.0769,1.0829,1.0915,1.0987,1.1047,1.1121,1.1159,1.117,1.1177,1.1175,1.1184,1.1129,1.1111,1.1167,1.1167,1.1167,1.1167,1.1167,1.1167,1.0314,1.0393,1.0423,1.0526,1.0571,1.0647,1.0683,1.0734,1.0782,1.0877,1.0936,1.0975,1.1036,1.1114,1.1181,1.1197,1.1223,1.1229,1.1247,1.1194,1.1188,1.1183,1.1167,1.1234,1.1234,1.1297,1.1298,1.1298]},{"header":{"parameterUnit":"m.s-1","parameterCategory":1,"la1":30.2991,"la2":30.254,"lo1":-89.0895,"lo2":-89.0444,"dy":0.0017,"dx":0.0017,"nx":28,"ny":28,"refTime":"2023-07-30T03:00:00:Z","depth":0,"parameterNumber":3,"parameterNumberName":"V-component_of_WINDS"},"data":[0,0,0,0,0,0,0,0,0,0,0,0,0,0,0,0,0,0,0,0,0,0,0,0,0,0,0,0,0,0,0,0,0,0,0,0,0,0,0,0,0,0,0,0,0,0,0,0,0,0,0,0,0,0,0,0,0,0,2.5755,2.5754,0,2.5671,2.567,2.5669,2.5557,2.5555,2.5553,2.5551,2.5464,2.5463,2.5463,0,0,0,0,0,0,0,0,0,0,0,0,0,2.5816,2.5816,2.5755,2.5754,2.5753,2.5671,2.567,2.5669,2.5557,2.5555,2.5552,2.555,2.5464,2.5464,2.5463,0,0,0,0,0,0,0,0,0,0,0,0,0,2.5767,2.5816,2.5755,2.5687,2.568,2.5671,2.567,2.5668,2.5558,2.5555,2.5552,2.5549,2.5464,2.5464,2.5463,2.5513,0,0,2.546,2.546,0,0,0,0,0,0,0,0,2.577,2.5765,2.5698,2.5692,2.5684,2.5621,2.5659,2.5616,2.5558,2.5604,2.5551,2.5548,2.5519,2.5513,2.5503,2.5509,2.5505,2.546,2.5459,2.5459,2.5459,0,0,0,0,0,0,0,2.5773,2.5768,2.5721,2.5697,2.5689,2.566,2.565,2.5651,2.5578,2.56,2.5591,2.5583,2.5514,2.5505,2.5501,2.5504,2.546,2.5459,2.5459,2.5458,2.5546,2.5549,0,0,0,0,0,0,2.5787,2.5771,2.5724,2.5719,2.5721,2.5662,2.565,2.5644,2.5578,2.5565,2.5586,2.5578,2.5507,2.5502,2.5497,2.5551,2.5459,2.5458,2.5458,2.5543,2.5547,2.555,0,0,0,0,0,0,2.5789,2.5784,2.5727,2.5743,2.5733,2.5663,2.5658,2.5644,2.5634,2.5567,2.5553,2.5589,2.5505,2.5498,2.551,2.5547,2.5458,2.5457,2.554,2.5544,2.5548,2.5661,0,0,0,0,0,0,2.5791,2.5785,2.5804,2.5744,2.5733,2.5743,2.566,2.5644,2.5633,2.5623,2.5567,2.5555,2.5502,2.5512,2.5509,2.5544,2.5456,2.5536,2.5542,2.5547,2.5654,2.5669,2.5682,0,0,0,0,0,2.5794,2.5839,2.5806,2.5801,2.5755,2.5745,2.5739,2.5678,2.5637,2.5655,2.5611,2.5557,2.5543,2.5514,2.551,2.5545,2.5534,2.554,2.5547,2.5648,2.5666,2.5681,0,0,0,0,0,0,2.5905,2.583,2.5792,2.5819,2.579,2.5726,2.5747,2.5699,2.568,2.5671,2.5596,2.5584,2.5605,2.5576,2.5545,2.559,2.553,2.5536,2.5609,2.5625,2.5639,2.5646,2.5456,0,0,0,0,0,2.5933,2.5931,2.5865,2.5896,2.5883,2.5818,2.5811,2.5767,2.5733,2.5719,2.5677,2.5645,2.5634,2.5628,2.5613,2.5649,2.5635,2.5671,2.5685,2.5697,2.5703,2.5719,2.5734,2.5571,2.5571,2.5571,0,0,2.599,2.5949,2.5952,2.5917,2.5889,2.5888,2.5808,2.5811,2.581,2.5719,2.5728,2.5696,2.5656,2.568,2.5688,2.5656,2.5745,2.5705,2.5715,2.5714,2.5727,2.5743,2.5757,2.5575,2.5575,2.5574,0,0,2.6094,2.6063,2.6085,2.6058,2.6016,2.5973,2.5978,2.5922,2.5897,2.5905,2.5837,2.5834,2.5816,2.579,2.5775,2.5869,2.5818,2.5866,2.5939,2.5956,2.5969,2.598,2.6013,2.6026,2.5873,2.5873,2.5873,0,2.617,2.6167,2.6102,2.6109,2.6096,2.6014,2.6036,2.6013,2.5969,2.5961,2.5926,2.5901,2.5869,2.5885,2.5908,2.5899,2.5902,2.5873,2.5972,2.5983,2.5992,2.6023,2.6036,2.5879,2.5878,2.5878,2.5877,0,2.6263,2.6262,2.6285,2.6245,2.6234,2.6248,2.6184,2.6181,2.6138,2.6098,2.6106,2.6064,2.604,2.604,2.5998,2.6051,2.6032,2.5986,2.5924,2.6015,2.6043,2.6054,2.5888,2.5886,2.5884,2.5882,0,0,2.6435,2.6359,2.6368,2.6349,2.6297,2.6294,2.6305,2.6282,2.628,2.6252,2.6259,2.6246,2.6202,2.6185,2.6139,2.6153,2.6231,2.6105,2.6103,2.613,2.6286,2.6322,2.6337,2.6196,2.6198,2.62,2.629,0,2.6529,2.6543,2.6485,2.6514,2.6512,2.6435,2.6444,2.6413,2.6376,2.6368,2.6327,2.6319,2.6262,2.6251,2.6263,2.6219,2.6261,2.6212,2.6201,2.6202,2.6214,2.6351,2.6389,2.6476,2.63,2.6302,2.6303,0,2.6641,2.662,2.6649,2.6596,2.6593,2.6602,2.6576,2.657,2.6533,2.6505,2.6486,2.6432,2.6438,2.6379,2.6386,2.6354,2.6346,2.6324,2.6326,2.6323,2.6259,2.6352,2.6502,2.6516,2.632,2.6319,2.6318,0,2.6764,2.6742,2.6757,2.6743,2.6681,2.6689,2.6663,2.6623,2.6613,2.659,2.6583,2.6561,2.6549,2.6532,2.6474,2.6437,2.6488,2.6424,2.6464,2.6466,2.6479,2.6479,2.663,2.6474,2.6474,2.6473,2.6473,0,2.6875,2.6896,2.6811,2.6821,2.6842,2.6774,2.6796,2.6763,2.6728,2.6729,2.666,2.6662,2.6586,2.6579,2.6533,2.6546,2.6541,2.6518,2.6506,2.6524,2.6527,2.6518,2.6511,2.6477,2.6476,2.6475,2.6475,0,2.7016,2.696,2.6971,2.6911,2.6896,2.6915,2.6863,2.6869,2.6827,2.683,2.6826,2.6761,2.675,2.669,2.6665,2.6634,2.6663,2.6638,2.6676,2.6668,2.6711,2.6708,2.6862,2.6879,2.6713,2.6714,2.6716,0,2.709,2.7105,2.7047,2.7043,2.7021,2.7015,2.7004,2.6938,2.6929,2.6888,2.6899,2.6882,2.6865,2.6851,2.6801,2.6781,2.6755,2.6811,2.6752,2.677,2.6756,2.6756,2.6757,2.6823,2.6826,2.6827,2.6829,0,2.7229,2.7201,2.7188,2.7167,2.7156,2.7136,2.7111,2.7111,2.7037,2.7031,2.7019,2.7007,2.6981,2.6965,2.6937,2.6909,2.6857,2.6848,2.6856,2.6875,2.6897,2.6886,2.671,2.6844,2.6843,2.6842,2.6841,2.684,2.7339,2.7348,2.7309,2.7298,2.7272,2.7251,2.7253,2.7212,2.7201,2.7176,2.7137,2.713,2.7092,2.7049,2.7026,2.7019,2.6989,2.7001,2.7004,2.7008,2.7018,2.6898,2.7013,2.7013,2.7012,2.7012,2.7012,0,2.7474,2.7445,2.7436,2.7403,2.7394,2.7346,2.7316,2.7312,2.7307,2.7276,2.7261,2.7247,2.7232,2.7181,2.716,2.7164,2.714,2.7161,2.716,2.7154,2.7046,2.7041,2.7181,2.7181,2.7181,2.7181,2.7181,2.7181,2.7544,2.7557,2.7524,2.7524,2.7494,2.7488,2.7475,2.7455,2.743,2.7418,2.7405,2.7372,2.7332,2.7308,2.7291,2.7276,2.7272,2.7301,2.7279,2.7178,2.7162,2.7147,2.7142,2.7301,2.7301,2.7388,2.7389,2.7389]}]]